Satellite: NOAA-12 Catalog number: 21263 Epoch time: 07346.58550033 Element set: 0461 Inclination: 098.7617 deg RA of node: 343.6113 deg Eccentricity: 0.0011805 Arg of perigee: 313.2964 deg Mean anomaly: 046.7223 deg Mean motion: 14.25507358 rev/day Decay rate: 9.8e-07 rev/day^2 Epoch rev: 86166 Checksum: 298
Satellite: MET-3/5 Catalog number: 21655 Epoch time: 07346.92868072 Element set: 0384 Inclination: 082.5552 deg RA of node: 236.6510 deg Eccentricity: 0.0014252 Arg of perigee: 117.9891 deg Mean anomaly: 242.2666 deg Mean motion: 13.17013380 rev/day Decay rate: 5.1e-07 rev/day^2 Epoch rev: 78493 Checksum: 307
Satellite: MET-2/21 Catalog number: 22782 Epoch time: 07346.69774680 Element set: 9 Inclination: 082.5486 deg RA of node: 260.2906 deg Eccentricity: 0.0024065 Arg of perigee: 094.8089 deg Mean anomaly: 265.5823 deg Mean motion: 13.83622723 rev/day Decay rate: 1.07e-06 rev/day^2 Epoch rev: 72120 Checksum: 313
Satellite: OKEAN-4 Catalog number: 23317 Epoch time: 07346.76872632 Element set: 449 Inclination: 082.5374 deg RA of node: 129.9422 deg Eccentricity: 0.0023221 Arg of perigee: 028.4990 deg Mean anomaly: 331.7491 deg Mean motion: 14.82558124 rev/day Decay rate: 9.1e-07 rev/day^2 Epoch rev: 71051 Checksum: 301
Satellite: NOAA-14 Catalog number: 23455 Epoch time: 07346.85558701 Element set: 0933 Inclination: 098.9706 deg RA of node: 053.8077 deg Eccentricity: 0.0008822 Arg of perigee: 318.5651 deg Mean anomaly: 041.4841 deg Mean motion: 14.13730093 rev/day Decay rate: -2.12e-06 rev/day^2 Epoch rev: 66788 Checksum: 320
Satellite: SICH-1 Catalog number: 23657 Epoch time: 07346.79728296 Element set: 249 Inclination: 082.5288 deg RA of node: 270.8529 deg Eccentricity: 0.0024997 Arg of perigee: 019.8435 deg Mean anomaly: 340.3738 deg Mean motion: 14.81533449 rev/day Decay rate: 2.21e-06 rev/day^2 Epoch rev: 66247 Checksum: 346
Satellite: NOAA-15 Catalog number: 25338 Epoch time: 07346.56086971 Element set: 0273 Inclination: 098.5422 deg RA of node: 338.3243 deg Eccentricity: 0.0009956 Arg of perigee: 225.7790 deg Mean anomaly: 134.2557 deg Mean motion: 14.24676114 rev/day Decay rate: -4.0e-07 rev/day^2 Epoch rev: 49808 Checksum: 326
Satellite: RESURS Catalog number: 25394 Epoch time: 07346.94387602 Element set: 0818 Inclination: 098.4149 deg RA of node: 034.1699 deg Eccentricity: 0.0002308 Arg of perigee: 041.5584 deg Mean anomaly: 318.5769 deg Mean motion: 14.24150187 rev/day Decay rate: -1.1e-07 rev/day^2 Epoch rev: 48979 Checksum: 328
Satellite: FENGYUN1 Catalog number: 25730 Epoch time: 07346.98041094 Element set: 0320 Inclination: 098.7081 deg RA of node: 324.2426 deg Eccentricity: 0.0021019 Arg of perigee: 339.1724 deg Mean anomaly: 020.8584 deg Mean motion: 14.07650395 rev/day Decay rate: 1.66e-06 rev/day^2 Epoch rev: 44262 Checksum: 283
Satellite: OKEAN-0 Catalog number: 25860 Epoch time: 07346.55871754 Element set: 235 Inclination: 097.7378 deg RA of node: 340.5534 deg Eccentricity: 0.0001449 Arg of perigee: 103.5730 deg Mean anomaly: 256.5638 deg Mean motion: 14.73490265 rev/day Decay rate: 5.1e-07 rev/day^2 Epoch rev: 45176 Checksum: 311
Satellite: NOAA-16 Catalog number: 26536 Epoch time: 07346.56016361 Element set: 0719 Inclination: 099.1394 deg RA of node: 326.8037 deg Eccentricity: 0.0011078 Arg of perigee: 035.6845 deg Mean anomaly: 324.5050 deg Mean motion: 14.12462462 rev/day Decay rate: 8.8e-07 rev/day^2 Epoch rev: 37228 Checksum: 306
Satellite: NOAA-17 Catalog number: 27453 Epoch time: 07346.86167496 Element set: 0715 Inclination: 098.5621 deg RA of node: 051.6986 deg Eccentricity: 0.0010864 Arg of perigee: 295.4603 deg Mean anomaly: 064.5443 deg Mean motion: 14.23932373 rev/day Decay rate: 1.57e-06 rev/day^2 Epoch rev: 28414 Checksum: 328
Satellite: NOAA-18 Catalog number: 28654 Epoch time: 07346.86663799 Element set: 0231 Inclination: 098.8507 deg RA of node: 285.2985 deg Eccentricity: 0.0015046 Arg of perigee: 121.5084 deg Mean anomaly: 238.7541 deg Mean motion: 14.11118674 rev/day Decay rate: -5.9e-07 rev/day^2 Epoch rev: 13205 Checksum: 328
/EX SB KEPS @ AMSAT $ORB07347.M Orbital Elements 07347.MISC
HR AMSAT ORBITAL ELEMENTS FOR MANNED AND MISCELLANEOUS SATELLITES FROM WA5QGD FORT WORTH,TX December 13, 2007 Send Subscribe/unsubscribe to KEPS at http://www.amsat.org/mailman/listinfo/keps BID: ORB07347.M TO ALL RADIO AMATEURS BT
Satellite: HUBBLE Catalog number: 20580 Epoch time: 07347.75436994 Element set: 26 Inclination: 028.4667 deg RA of node: 099.1162 deg Eccentricity: 0.0003786 Arg of perigee: 199.6582 deg Mean anomaly: 160.3868 deg Mean motion: 15.00313113 rev/day Decay rate: 3.45e-06 rev/day^2 Epoch rev: 76695 Checksum: 320
Satellite: UARS Catalog number: 21701 Epoch time: 07346.91667195 Element set: 0242 Inclination: 056.9752 deg RA of node: 257.3993 deg Eccentricity: 0.0089991 Arg of perigee: 173.9851 deg Mean anomaly: 186.2316 deg Mean motion: 15.49856495 rev/day Decay rate: 5.314e-05 rev/day^2 Epoch rev: 89344 Checksum: 357
Satellite: PO-34 Catalog number: 25520 Epoch time: 07345.40313185 Element set: 0888 Inclination: 028.4609 deg RA of node: 002.5784 deg Eccentricity: 0.0004885 Arg of perigee: 029.2996 deg Mean anomaly: 330.7868 deg Mean motion: 15.17095166 rev/day Decay rate: 3.87e-06 rev/day^2 Epoch rev: 50446 Checksum: 329
Satellite: ISS Catalog number: 25544 Epoch time: 07347.93651850 Element set: 506 Inclination: 051.6405 deg RA of node: 257.1066 deg Eccentricity: 0.0000829 Arg of perigee: 344.1844 deg Mean anomaly: 112.3482 deg Mean motion: 15.77501620 rev/day Decay rate: 3.3745e-04 rev/day^2 Epoch rev: 51913 Checksum: 287
Satellite: OO-38 Catalog number: 26063 Epoch time: 07347.53817189 Element set: 83 Inclination: 100.2179 deg RA of node: 023.2319 deg Eccentricity: 0.0037075 Arg of perigee: 015.6637 deg Mean anomaly: 344.5688 deg Mean motion: 14.35822399 rev/day Decay rate: -7.0e-08 rev/day^2 Epoch rev: 41278 Checksum: 318
Satellite: UWE-1 Catalog number: 28892 Epoch time: 07346.72997981 Element set: 921 Inclination: 098.1134 deg RA of node: 239.6272 deg Eccentricity: 0.0016405 Arg of perigee: 276.1838 deg Mean anomaly: 083.7499 deg Mean motion: 14.59571087 rev/day Decay rate: 1.57e-06 rev/day^2 Epoch rev: 11325 Checksum: 344
Satellite: CO-58 Catalog number: 28895 Epoch time: 07346.22337085 Element set: 0897 Inclination: 098.1174 deg RA of node: 239.4124 deg Eccentricity: 0.0016797 Arg of perigee: 277.3654 deg Mean anomaly: 082.5621 deg Mean motion: 14.59613332 rev/day Decay rate: 1.13e-06 rev/day^2 Epoch rev: 11306 Checksum: 325
Satellite: NCUBE2 Catalog number: 28897 Epoch time: 07346.27814670 Element set: 425 Inclination: 098.1143 deg RA of node: 239.4097 deg Eccentricity: 0.0016388 Arg of perigee: 279.6240 deg Mean anomaly: 080.3087 deg Mean motion: 14.59779800 rev/day Decay rate: 1.10e-06 rev/day^2 Epoch rev: 10535 Checksum: 319
Satellite: FCAL Catalog number: 29667 Epoch time: 07346.94453507 Element set: 0578 Inclination: 051.6282 deg RA of node: 231.9453 deg Eccentricity: 0.0008290 Arg of perigee: 332.8446 deg Mean anomaly: 027.2128 deg Mean motion: 15.96489744 rev/day Decay rate: 4.6257e-04 rev/day^2 Epoch rev: 05647 Checksum: 339
Satellite: FALCON Catalog number: 30776 Epoch time: 07347.83572399 Element set: 203 Inclination: 035.4329 deg RA of node: 203.5298 deg Eccentricity: 0.0001034 Arg of perigee: 269.5757 deg Mean anomaly: 090.4840 deg Mean motion: 15.02821309 rev/day Decay rate: 4.85e-06 rev/day^2 Epoch rev: 4209 Checksum: 296
Satellite: MAST Catalog number: 31126 Epoch time: 07346.22657441 Element set: 205 Inclination: 098.0658 deg RA of node: 052.9478 deg Eccentricity: 0.0094626 Arg of perigee: 193.7880 deg Mean anomaly: 166.0733 deg Mean motion: 14.53382925 rev/day Decay rate: 3.0e-08 rev/day^2 Epoch rev: 3471 Checksum: 302
Satellite: CAPE1 Catalog number: 31130 Epoch time: 07346.67688033 Element set: 0186 Inclination: 098.0663 deg RA of node: 052.8233 deg Eccentricity: 0.0102404 Arg of perigee: 194.0856 deg Mean anomaly: 165.7475 deg Mean motion: 14.51911627 rev/day Decay rate: 1.57e-06 rev/day^2 Epoch rev: 03451 Checksum: 291
/EX